TimeEST,TemperatureF,Dew PointF,Humidity,Sea Level PressureIn,VisibilityMPH,Wind Direction,Wind SpeedMPH,Gust SpeedMPH,PrecipitationIn,Events,Conditions,WindDirDegrees,DateUTC
12:53 AM,30.9,28.9,92,30.01,4.0,East,10.4,-,0.04,Rain,Light Freezing Rain,90,2013-02-22 05:53:00
1:03 AM,30.2,30.2,100,29.99,4.0,East,10.4,-,0.02,Rain,Light Freezing Rain,90,2013-02-22 06:03:00
1:18 AM,30.2,30.2,100,29.99,3.0,ENE,9.2,-,0.04,Rain,Light Freezing Rain,70,2013-02-22 06:18:00
1:42 AM,30.2,30.2,100,29.97,4.0,ENE,10.4,-,0.06,Rain,Light Freezing Rain,70,2013-02-22 06:42:00
1:53 AM,30.9,30.0,96,29.98,3.0,East,10.4,-,0.06,Rain,Light Freezing Rain,80,2013-02-22 06:53:00
2:02 AM,32.0,30.2,93,29.95,2.0,East,10.4,-,0.02,Rain,Light Freezing Rain,90,2013-02-22 07:02:00
2:18 AM,32.0,30.2,93,29.94,3.0,East,9.2,-,0.03,Rain,Light Freezing Rain,90,2013-02-22 07:18:00
2:53 AM,32.0,30.9,96,29.93,6.0,East,9.2,-,0.04,Rain,Light Freezing Rain,100,2013-02-22 07:53:00
3:28 AM,33.8,32.0,93,29.88,7.0,ESE,10.4,19.6,0.00,Rain,Light Freezing Rain,110,2013-02-22 08:28:00
3:53 AM,33.1,32.0,96,29.89,8.0,ESE,5.8,-,0.00,Rain,Light Freezing Rain,110,2013-02-22 08:53:00
4:03 AM,33.8,32.0,93,29.88,8.0,ESE,8.1,-,0.00,,Overcast,120,2013-02-22 09:03:00
4:53 AM,33.1,33.1,100,29.91,5.0,Calm,Calm,-,0.01,,Overcast,0,2013-02-22 09:53:00
5:17 AM,33.8,33.8,100,29.88,2.5,ESE,5.8,-,N/A,,Overcast,120,2013-02-22 10:17:00
5:26 AM,33.8,33.8,100,29.88,3.0,ESE,6.9,-,N/A,,Overcast,110,2013-02-22 10:26:00
5:40 AM,33.8,33.8,100,29.88,2.5,SE,6.9,-,N/A,,Overcast,130,2013-02-22 10:40:00
5:50 AM,33.8,33.8,100,29.88,3.0,SE,5.8,-,N/A,,Overcast,140,2013-02-22 10:50:00
5:53 AM,33.1,33.1,100,29.90,2.5,SE,5.8,-,N/A,,Overcast,140,2013-02-22 10:53:00
6:04 AM,33.8,33.8,100,29.88,2.5,ESE,5.8,-,N/A,,Overcast,110,2013-02-22 11:04:00
6:11 AM,33.8,33.8,100,29.88,2.5,SE,5.8,-,N/A,,Overcast,130,2013-02-22 11:11:00
6:22 AM,33.8,33.8,100,29.89,2.5,ESE,3.5,-,N/A,,Overcast,120,2013-02-22 11:22:00
6:44 AM,33.8,33.8,100,29.89,2.5,SE,3.5,-,0.01,,Overcast,130,2013-02-22 11:44:00
6:53 AM,33.1,33.1,100,29.91,2.5,SE,4.6,-,0.01,,Overcast,140,2013-02-22 11:53:00
7:02 AM,33.8,33.8,100,29.89,3.0,ESE,4.6,-,0.00,,Overcast,120,2013-02-22 12:02:00
7:53 AM,35.1,35.1,100,29.92,5.0,South,3.5,-,0.00,,Overcast,170,2013-02-22 12:53:00
8:34 AM,37.4,35.6,93,29.91,5.0,SSE,3.5,-,N/A,,Overcast,160,2013-02-22 13:34:00
8:42 AM,37.4,37.4,100,29.91,5.0,SSE,5.8,-,N/A,,Overcast,160,2013-02-22 13:42:00
8:53 AM,39.0,37.9,96,29.93,6.0,South,5.8,-,N/A,,Overcast,170,2013-02-22 13:53:00
9:50 AM,41.0,39.2,93,29.92,5.0,WSW,4.6,-,N/A,,Overcast,250,2013-02-22 14:50:00
9:53 AM,41.0,39.9,96,29.94,5.0,WSW,4.6,-,N/A,,Overcast,250,2013-02-22 14:53:00
10:51 AM,46.4,44.6,93,29.94,9.0,SW,11.5,-,N/A,,Overcast,230,2013-02-22 15:51:00
10:53 AM,46.0,44.1,93,29.95,10.0,WSW,9.2,-,N/A,,Overcast,240,2013-02-22 15:53:00
11:25 AM,46.4,42.8,87,29.94,10.0,Variable,6.9,-,N/A,,Overcast,0,2013-02-22 16:25:00
11:53 AM,48.9,43.0,80,29.95,10.0,WSW,11.5,18.4,N/A,,Overcast,250,2013-02-22 16:53:00
12:50 PM,51.8,42.8,71,29.94,10.0,SW,15.0,23.0,N/A,,Overcast,220,2013-02-22 17:50:00
12:53 PM,51.1,43.0,74,29.95,10.0,SW,16.1,-,N/A,,Overcast,220,2013-02-22 17:53:00
1:00 PM,51.8,42.8,71,29.94,10.0,SW,16.1,25.3,N/A,,Overcast,230,2013-02-22 18:00:00
1:29 PM,53.6,42.8,67,29.93,10.0,SW,19.6,29.9,N/A,,Overcast,230,2013-02-22 18:29:00
1:53 PM,53.1,43.0,69,29.94,10.0,SW,15.0,26.5,N/A,,Overcast,220,2013-02-22 18:53:00
2:53 PM,54.0,43.0,66,29.93,10.0,West,11.5,19.6,N/A,,Mostly Cloudy,270,2013-02-22 19:53:00
3:53 PM,54.0,43.0,66,29.92,10.0,WSW,9.2,-,N/A,,Mostly Cloudy,250,2013-02-22 20:53:00
4:53 PM,51.1,42.1,71,29.93,10.0,WNW,8.1,-,N/A,,Mostly Cloudy,290,2013-02-22 21:53:00
5:53 PM,48.9,39.9,71,29.95,10.0,WNW,5.8,-,N/A,,Mostly Cloudy,290,2013-02-22 22:53:00
6:36 PM,46.4,39.2,76,29.94,10.0,NW,4.6,-,N/A,,Scattered Clouds,320,2013-02-22 23:36:00
6:53 PM,45.0,39.0,80,29.96,10.0,NNW,4.6,-,N/A,,Scattered Clouds,330,2013-02-22 23:53:00
7:04 PM,44.6,39.2,81,29.95,10.0,NW,4.6,-,N/A,,Mostly Cloudy,320,2013-02-23 00:04:00
7:53 PM,44.1,37.9,79,29.98,10.0,Calm,Calm,-,N/A,,Overcast,0,2013-02-23 00:53:00
8:53 PM,43.0,37.9,82,29.98,10.0,Calm,Calm,-,N/A,,Overcast,0,2013-02-23 01:53:00
9:36 PM,41.0,37.4,87,29.98,10.0,Calm,Calm,-,N/A,,Overcast,0,2013-02-23 02:36:00
9:53 PM,39.9,37.9,93,30.01,10.0,Calm,Calm,-,N/A,,Overcast,0,2013-02-23 02:53:00
10:53 PM,37.9,37.0,97,30.00,10.0,Calm,Calm,-,N/A,,Mostly Cloudy,0,2013-02-23 03:53:00
11:53 PM,39.0,36.0,89,29.99,10.0,Calm,Calm,-,N/A,,Mostly Cloudy,0,2013-02-23 04:53:00